Wind_Speed
34 33 29 27 24 20 19 19 17 15 12 12 11 11 10 10 9 8 6 5 5 6 2 0 1 3 5 8 8 8 8 9 9 10 10 11 13 15 16 20 23 26 29
33 34 32 29 25 21 19 19 17 15 12 11 11 12 12 11 11 9 8 6 6 5 2 2 3 3 6 6 6 6 6 6 7 8 9 11 13 16 19 21 26 30 33
32 33 33 30 26 23 22 20 16 11 10 7 8 10 10 10 10 10 9 7 5 4 4 5 7 10 9 7 5 4 3 6 6 8 11 10 12 14 18 24 28 32 36
30 32 33 30 27 24 23 20 16 14 9 6 6 5 6 8 10 9 9 9 7 9 9 8 9 8 7 6 3 2 5 7 8 10 10 14 19 25 27 29 31 35 38
31 33 33 32 31 29 25 21 18 14 12 10 9 7 8 10 10 10 10 9 11 10 9 9 9 6 2 1 1 1 5 9 11 12 14 14 20 24 30 33 35 38 39
29 30 34 34 34 31 27 24 21 17 14 13 14 13 12 13 12 12 13 11 10 9 9 9 8 8 7 8 6 6 8 11 14 15 16 20 23 27 32 37 40 44 42
32 32 32 33 34 32 29 26 23 19 15 15 16 15 15 16 16 17 15 12 11 10 10 10 10 9 9 9 9 8 10 13 18 20 21 23 27 32 35 41 45 49 49
35 34 33 31 31 30 28 28 24 20 18 18 17 16 17 17 19 20 18 13 9 8 9 13 12 11 11 12 14 17 19 21 24 25 27 27 31 32 36 42 45 49 49
34 33 32 31 30 30 28 27 26 23 21 20 20 18 16 18 20 22 21 17 14 13 12 14 15 13 13 15 16 17 19 20 24 28 29 31 34 37 41 44 47 52 50
31 31 32 32 32 30 30 30 30 28 27 24 22 19 15 16 20 22 24 22 19 19 19 19 21 19 19 20 20 21 23 25 26 27 29 32 33 35 40 46 53 55 54
28 31 34 33 33 35 35 33 30 30 29 27 25 22 19 19 19 21 21 21 22 23 23 23 25 25 24 24 25 25 27 30 30 32 31 32 34 34 37 43 50 57 54
26 31 35 37 37 37 35 31 29 28 27 26 24 20 18 18 19 20 19 20 20 24 22 23 22 25 26 27 28 29 31 34 35 36 36 38 39 34 37 43 47 48 43
22 26 33 38 39 35 32 31 30 27 28 27 26 25 25 27 27 29 28 27 26 25 23 26 27 27 27 28 30 32 35 36 37 39 40 40 42 39 39 46 49 47 42
27 26 35 37 42 40 39 35 33 31 34 34 32 32 32 33 32 34 34 32 33 32 31 30 29 30 30 31 33 35 37 38 39 41 42 43 43 44 42 48 52 51 43
33 31 33 34 45 45 41 38 38 39 41 42 42 42 42 41 39 41 41 39 39 38 39 35 33 35 37 37 38 40 41 41 42 42 44 46 46 47 47 52 52 51 51
42 41 39 34 42 47 46 47 47 46 47 49 50 49 49 50 50 48 49 50 47 44 41 38 38 40 42 43 43 43 44 44 45 45 45 47 48 49 48 52 52 51 50
38 38 36 38 43 47 51 53 51 49 51 51 52 56 56 55 54 53 51 51 49 43 40 40 39 41 43 44 44 43 45 46 46 45 46 48 50 50 49 51 51 48 47
38 39 40 42 43 47 51 50 48 51 52 54 57 59 59 57 56 55 51 45 43 42 41 41 42 42 42 42 41 42 44 45 45 45 47 49 51 52 51 53 50 46 46
38 38 38 37 37 37 39 45 49 49 52 55 57 58 58 57 53 45 42 41 42 42 42 42 43 44 43 42 42 43 43 44 45 46 47 50 53 52 53 53 50 48 45
43 42 40 39 40 40 39 38 40 40 40 42 44 47 46 43 42 41 42 44 45 45 44 44 44 45 45 45 44 45 45 46 47 48 50 51 54 56 55 53 50 49 45
48 48 44 39 39 41 42 42 42 42 42 42 42 42 43 42 43 44 45 45 45 46 46 47 48 49 49 50 50 50 51 50 50 51 51 52 55 58 57 56 54 51 48
55 53 48 43 43 43 46 48 48 47 47 46 46 45 45 45 45 46 46 47 50 51 53 53 55 56 56 56 55 54 54 53 52 51 52 54 55 57 57 56 56 55 50
57 59 56 54 53 50 50 51 53 53 53 53 52 52 51 51 51 51 51 52 53 55 55 56 57 58 58 59 58 58 58 58 56 55 57 56 57 60 59 56 56 54 51
64 64 65 63 60 55 51 54 55 55 56 54 53 54 54 55 55 55 56 58 59 59 60 60 61 62 62 61 61 62 62 63 62 63 61 62 62 58 58 59 61 57 50
73 72 69 68 62 58 57 57 56 54 56 58 58 58 59 61 62 62 63 62 62 62 63 65 66 66 67 67 68 67 67 66 64 63 61 63 66 63 60 59 58 57 54
79 78 76 70 70 70 63 64 59 55 53 53 56 58 63 65 66 68 69 70 70 71 71 71 72 72 71 70 71 68 69 69 69 64 65 63 60 61 60 61 59 58 56
Wind_Direction
201 200 198 201 202 201 194 190 188 185 192 206 220 237 245 254 266 274 285 299 318 329 354 138 112 90 73 83 79 63 44 33 35 31 28 15 8 355 348 341 338 339 340
201 199 197 198 197 196 196 189 180 190 210 229 239 242 242 249 254 261 264 272 280 293 259 213 160 126 104 93 88 79 71 46 18 358 357 354 352 346 344 347 348 345 341
202 203 200 196 193 195 195 186 183 188 209 218 231 240 231 232 241 244 247 248 245 231 205 160 157 138 141 135 131 125 52 14 347 322 327 344 346 336 341 336 336 337 334
203 202 202 196 193 199 199 189 185 183 187 215 222 203 208 204 218 228 227 226 206 195 171 158 166 163 151 151 189 75 46 22 17 11 355 343 336 333 334 331 337 333 331
202 201 202 201 198 201 199 193 186 189 199 217 231 211 212 220 221 217 211 210 197 194 175 165 158 153 135 337 314 349 355 345 330 331 338 337 325 326 327 329 331 324 326
205 202 204 203 203 204 199 195 189 196 205 220 229 230 220 225 225 207 197 199 192 196 193 191 206 238 243 257 288 294 303 309 319 328 333 334 335 334 329 326 324 319 321
202 204 203 203 204 204 200 197 200 201 206 212 221 228 228 226 217 201 196 206 209 215 232 244 244 255 259 268 282 298 309 321 324 330 340 336 342 330 327 326 324 324 324
205 203 202 203 205 205 200 201 202 206 204 210 214 221 228 225 217 205 205 206 210 224 243 252 264 272 280 293 319 326 327 327 325 328 337 336 334 332 330 329 330 328 325
206 204 202 199 202 203 202 199 204 204 205 210 211 212 215 221 220 218 220 224 231 244 257 275 281 283 290 300 310 316 318 322 321 327 326 328 335 336 331 326 328 328 326
206 205 205 202 197 195 199 203 206 204 205 211 211 212 216 223 232 233 232 232 237 247 260 274 283 285 286 295 305 308 314 311 318 314 316 323 330 335 331 330 329 331 327
207 209 205 197 195 197 201 205 207 208 209 211 215 220 223 231 243 244 246 244 247 250 256 267 274 275 282 285 291 299 307 309 313 312 311 312 326 334 332 332 331 329 330
203 212 208 198 198 201 206 210 210 212 215 216 219 227 234 240 242 244 251 248 252 250 257 258 263 269 277 283 289 296 300 304 310 312 314 319 323 328 331 332 332 327 329
202 211 219 211 205 209 212 217 217 219 221 224 226 231 240 243 249 249 258 262 265 262 261 261 262 270 279 284 289 292 297 304 307 308 310 316 320 324 329 334 334 329 329
209 216 212 220 214 213 214 218 224 222 228 230 230 233 240 244 248 255 259 262 266 268 271 266 267 275 278 284 289 292 298 303 305 305 307 313 319 321 328 334 334 332 327
233 231 231 217 218 220 221 228 241 227 229 238 238 239 243 246 246 252 259 262 266 267 267 266 268 274 277 281 285 290 293 297 302 303 305 310 316 317 326 331 334 331 327
220 222 232 223 222 222 224 226 229 231 236 239 243 246 246 249 253 253 258 266 277 282 274 275 278 279 280 280 281 284 289 293 295 300 303 307 313 317 322 327 332 332 328
222 224 226 227 227 230 231 234 236 241 239 241 247 251 252 255 258 261 267 273 279 277 273 274 275 278 278 278 281 283 284 288 291 297 300 305 310 314 319 325 330 331 329
227 230 229 229 231 234 236 237 239 246 248 248 251 254 257 259 263 270 272 270 270 271 271 271 274 277 280 282 283 284 284 286 290 295 298 303 307 311 317 324 327 329 326
230 226 228 230 232 237 237 237 240 244 246 250 254 257 259 261 264 264 265 265 267 270 271 272 276 279 281 282 284 286 287 288 290 293 296 301 304 309 316 320 325 328 320
233 233 234 237 243 248 245 245 241 242 246 248 251 255 259 262 265 266 267 269 271 272 274 277 278 279 280 282 285 286 287 288 289 292 295 298 304 309 312 316 321 322 318
239 237 233 236 250 254 246 246 248 248 250 251 252 255 258 261 261 263 266 268 271 273 274 274 276 277 279 281 283 284 284 285 287 291 293 298 303 306 309 314 319 317 313
240 240 235 240 246 256 261 259 255 253 253 256 256 256 259 261 263 264 267 269 271 272 275 278 279 279 279 281 282 283 283 285 288 289 292 296 302 302 306 309 313 312 306
240 241 242 247 250 257 260 261 260 259 258 259 260 260 262 265 267 268 269 271 273 274 276 277 278 280 282 283 284 285 286 287 288 287 291 296 299 301 302 305 309 306 302
244 241 243 250 251 257 257 259 261 263 263 264 265 265 266 267 268 269 271 273 274 275 277 278 279 280 281 282 283 285 285 287 288 289 292 293 297 297 302 303 304 298 295
246 248 251 256 260 257 260 259 259 257 259 261 264 266 267 268 269 269 271 273 275 276 277 276 276 277 278 279 280 281 282 283 285 286 289 293 296 297 302 300 297 291 293
254 254 253 251 256 260 261 260 259 259 260 262 264 264 263 265 268 271 273 275 276 278 279 278 278 278 278 279 279 279 281 282 281 285 289 291 295 295 293 293 290 292 294
Height
5900 5905 5910 5915 5919 5922 5924 5926 5928 5930 5933 5935 5938 5939 5940 5942 5943 5944 5945 5946 5947 5947 5947 5947 5948 5948 5949 5951 5950 5950 5950 5949 5950 5949 5949 5948 5947 5946 5944 5941 5938 5935 5931
5897 5901 5906 5910 5915 5919 5921 5924 5926 5928 5930 5933 5935 5936 5938 5939 5940 5942 5943 5944 5945 5946 5946 5946 5947 5949 5949 5950 5950 5950 5949 5949 5949 5948 5947 5946 5945 5943 5941 5938 5936 5932 5928
5893 5898 5902 5906 5911 5916 5918 5921 5923 5925 5926 5929 5931 5932 5934 5936 5938 5939 5941 5941 5942 5943 5944 5945 5946 5947 5948 5949 5949 5949 5949 5949 5949 5947 5945 5945 5943 5942 5940 5937 5933 5929 5924
5889 5895 5900 5903 5907 5911 5914 5917 5919 5921 5923 5925 5928 5930 5932 5934 5935 5936 5938 5938 5939 5941 5942 5943 5944 5945 5947 5948 5948 5948 5948 5948 5947 5946 5945 5944 5941 5938 5935 5932 5930 5925 5921
5885 5890 5896 5899 5901 5905 5911 5914 5916 5918 5920 5923 5926 5928 5930 5931 5932 5934 5935 5936 5937 5939 5940 5941 5943 5944 5944 5945 5946 5946 5946 5945 5944 5943 5942 5941 5939 5935 5930 5927 5923 5919 5917
5882 5886 5890 5893 5897 5901 5906 5910 5913 5915 5918 5921 5923 5925 5927 5929 5930 5932 5933 5934 5936 5938 5939 5940 5942 5942 5943 5943 5943 5943 5943 5942 5942 5940 5939 5938 5934 5931 5926 5922 5917 5911 5909
5877 5880 5884 5888 5892 5896 5901 5906 5910 5912 5915 5918 5920 5922 5924 5926 5928 5929 5931 5933 5934 5936 5937 5938 5939 5940 5940 5940 5940 5940 5939 5938 5937 5936 5935 5932 5929 5924 5920 5915 5909 5900 5895
5871 5875 5880 5884 5889 5892 5897 5903 5906 5909 5912 5915 5917 5919 5921 5923 5925 5927 5929 5930 5932 5934 5935 5936 5936 5936 5936 5936 5935 5935 5933 5932 5930 5929 5927 5926 5922 5918 5912 5906 5901 5893 5889
5867 5871 5875 5880 5885 5890 5894 5899 5901 5904 5908 5911 5913 5916 5918 5920 5922 5924 5926 5928 5929 5931 5933 5933 5933 5933 5932 5932 5932 5931 5930 5929 5926 5923 5921 5919 5915 5909 5902 5896 5892 5885 5880
5864 5868 5871 5876 5881 5886 5889 5893 5895 5899 5903 5906 5910 5913 5915 5917 5919 5921 5923 5925 5927 5927 5929 5930 5930 5930 5928 5927 5927 5926 5926 5925 5924 5922 5919 5915 5912 5907 5899 5890 5881 5875 5867
5859 5863 5866 5871 5876 5879 5883 5887 5892 5895 5899 5903 5906 5909 5912 5914 5915 5916 5918 5921 5922 5923 5925 5926 5926 5925 5924 5923 5922 5922 5921 5920 5919 5918 5914 5911 5908 5902 5897 5889 5880 5867 5859
5853 5857 5861 5867 5872 5876 5880 5884 5889 5893 5897 5901 5904 5906 5909 5910 5911 5911 5912 5914 5915 5917 5919 5920 5920 5919 5918 5917 5917 5916 5914 5913 5911 5910 5907 5903 5899 5896 5890 5884 5876 5868 5859
5849 5854 5858 5862 5867 5872 5877 5881 5886 5890 5894 5897 5900 5902 5904 5905 5905 5905 5906 5908 5909 5910 5912 5912 5912 5912 5911 5911 5909 5908 5906 5906 5904 5902 5900 5896 5891 5886 5881 5874 5867 5860 5852
5843 5848 5852 5857 5862 5866 5871 5875 5879 5882 5886 5888 5891 5893 5895 5897 5898 5897 5899 5900 5901 5902 5903 5904 5904 5904 5903 5902 5901 5900 5898 5898 5896 5894 5891 5887 5882 5877 5872 5867 5859 5852 5845
5837 5841 5845 5849 5855 5859 5864 5866 5867 5871 5876 5879 5882 5883 5886 5887 5888 5889 5891 5892 5893 5893 5893 5895 5896 5895 5894 5893 5892 5891 5890 5889 5888 5884 5881 5877 5873 5868 5864 5859 5851 5843 5835
5827 5833 5837 5840 5846 5850 5854 5857 5860 5863 5865 5868 5870 5873 5875 5877 5879 5879 5881 5882 5883 5884 5885 5887 5887 5886 5885 5884 5883 5882 5881 5880 5877 5875 5871 5868 5864 5859 5855 5851 5844 5836 5828
5819 5824 5828 5832 5836 5840 5843 5845 5849 5852 5855 5858 5860 5861 5864 5867 5868 5869 5870 5871 5873 5873 5874 5876 5875 5875 5875 5874 5874 5873 5871 5869 5867 5865 5862 5857 5854 5850 5846 5841 5836 5829 5821
5809 5813 5817 5822 5826 5830 5834 5837 5840 5843 5846 5848 5849 5851 5853 5856 5857 5858 5860 5861 5862 5862 5863 5864 5865 5865 5864 5863 5862 5862 5860 5859 5857 5854 5850 5847 5844 5840 5835 5832 5827 5821 5815
5798 5802 5807 5811 5816 5820 5823 5826 5830 5832 5834 5836 5838 5839 5841 5845 5847 5849 5849 5850 5851 5851 5852 5853 5854 5853 5853 5852 5851 5850 5848 5847 5845 5842 5839 5836 5833 5828 5825 5821 5816 5812 5807
5787 5792 5796 5800 5805 5808 5812 5815 5818 5820 5823 5824 5826 5827 5829 5831 5834 5836 5837 5838 5839 5840 5841 5841 5841 5840 5839 5839 5838 5837 5836 5834 5832 5830 5827 5825 5821 5816 5814 5809 5806 5801 5797
5776 5781 5784 5788 5793 5796 5800 5803 5806 5809 5810 5812 5814 5815 5817 5820 5821 5823 5824 5825 5826 5827 5827 5827 5827 5826 5826 5825 5824 5823 5821 5819 5818 5816 5814 5811 5808 5804 5802 5797 5793 5789 5785
5763 5768 5771 5775 5781 5785 5786 5790 5793 5796 5798 5800 5802 5804 5805 5807 5808 5810 5811 5812 5812 5812 5812 5813 5813 5812 5811 5811 5809 5808 5806 5805 5804 5802 5799 5797 5794 5791 5788 5783 5779 5776 5773
5749 5754 5757 5762 5767 5771 5773 5776 5778 5781 5784 5786 5787 5790 5792 5793 5794 5795 5796 5798 5798 5797 5797 5797 5796 5796 5795 5794 5793 5792 5791 5790 5789 5787 5785 5783 5781 5777 5774 5770 5766 5763 5760
5732 5738 5743 5748 5752 5756 5759 5761 5764 5766 5768 5770 5772 5774 5775 5776 5778 5779 5780 5781 5782 5781 5781 5780 5779 5779 5778 5777 5777 5776 5775 5774 5773 5771 5770 5768 5766 5761 5758 5755 5752 5750 5747
5715 5719 5725 5729 5733 5739 5744 5747 5749 5751 5752 5755 5757 5757 5759 5759 5761 5762 5762 5762 5763 5763 5763 5763 5762 5762 5761 5760 5759 5758 5757 5756 5756 5754 5753 5752 5749 5745 5743 5739 5738 5735 5732
5695 5702 5707 5712 5715 5719 5724 5728 5731 5734 5735 5737 5740 5742 5741 5742 5743 5743 5743 5743 5743 5744 5743 5743 5742 5741 5740 5740 5741 5739 5739 5738 5737 5736 5735 5732 5730 5728 5727 5724 5722 5720 5715